Wind_Speed
65 66 68 68 69 69 69 69 68 68 69 69 70 70 71 71 71 72 72 72 73 73 73 73 73 73 73 73 73 74 74 74 74 74 75 75 76 76 76 77 77 77 78 78 79 80 80 81 82 82 83 84 85 85 86 87 88 89 89 90 90 91 91 91 91 91 92 92 92 92 92 92 92 92 92 92 92 92 92 92 92 93 93 93 93 94
67 68 69 69 69 69 69 69 69 69 69 70 70 71 71 72 72 72 73 73 73 73 73 73 73 73 73 74 74 74 74 75 75 76 76 76 77 77 77 78 78 79 79 80 81 81 82 83 84 84 85 86 87 87 88 89 89 90 90 90 90 90 90 90 90 89 89 89 89 88 88 88 87 87 87 87 87 86 86 86 87 87 87 87 88 88
69 70 70 70 69 68 68 69 69 70 70 71 71 72 72 72 72 73 73 73 73 73 73 73 73 73 74 74 74 75 75 76 76 76 77 77 78 78 79 79 80 80 81 82 82 83 84 85 86 86 87 88 88 89 89 89 89 89 89 89 88 88 87 87 86 86 85 85 84 84 83 83 82 82 81 81 81 80 80 80 80 80 81 81 81 81
70 70 71 70 69 69 69 69 70 71 71 72 72 72 73 73 73 73 73 72 73 73 73 73 73 74 74 75 75 76 76 76 77 77 78 78 79 79 80 80 81 82 83 83 84 85 86 87 87 88 88 89 89 89 89 88 88 87 86 86 85 84 84 83 82 82 81 81 80 79 79 78 78 77 77 76 76 75 75 75 75 75 75 75 75 75
70 71 70 70 69 69 69 70 71 71 72 72 73 73 73 73 73 73 73 72 72 73 73 73 74 74 74 75 76 76 77 77 78 78 78 79 80 80 81 82 83 84 84 85 86 87 87 88 88 88 88 88 88 87 87 86 85 84 83 83 82 81 80 79 79 78 78 77 76 76 75 75 74 74 73 73 73 72 72 72 72 71 71 71 71 71
71 70 70 70 69 70 70 71 71 72 72 73 73 73 73 73 73 72 72 72 72 73 73 73 74 74 75 76 76 77 77 78 78 79 79 80 81 82 83 83 84 85 86 86 87 87 87 88 88 88 87 87 86 85 84 83 82 81 80 79 79 78 77 77 76 76 75 75 75 74 74 73 73 73 72 72 71 71 71 70 70 70 70 70 69 69
71 70 70 70 70 70 71 71 72 72 73 73 73 73 73 73 72 72 72 72 72 73 73 74 74 75 76 76 77 77 78 78 79 80 80 81 82 83 84 84 85 85 86 86 86 86 86 86 86 85 85 84 83 82 81 80 79 79 78 77 77 76 76 76 75 75 75 74 74 74 73 73 73 72 72 71 71 71 70 70 69 69 69 69 69 68
71 70 70 70 71 71 72 72 73 73 73 73 73 73 72 72 72 72 72 72 72 73 73 74 75 76 76 77 78 78 79 79 80 80 81 82 83 84 84 84 85 85 85 85 84 84 84 84 83 83 82 81 80 79 79 78 78 77 77 77 77 76 76 76 76 76 75 75 75 74 74 73 73 73 72 72 71 71 70 70 69 69 68 68 68 68
70 70 71 71 71 71 72 73 73 73 73 73 73 72 72 72 72 72 72 72 73 73 73 74 75 76 77 78 78 79 79 80 80 81 82 83 83 83 83 83 83 83 83 82 82 82 81 81 80 80 79 79 78 78 78 78 78 78 78 78 78 78 78 77 77 77 76 76 76 75 74 74 73 72 72 71 71 70 69 69 68 68 68 67 67 67
71 71 71 72 72 72 72 72 73 74 73 73 73 72 72 71 71 72 72 72 73 73 74 74 75 76 77 78 79 79 80 81 81 82 82 82 82 82 82 81 81 80 80 79 79 79 78 78 78 78 78 78 78 79 79 79 79 80 80 80 79 79 79 79 78 78 77 77 76 75 74 74 73 72 71 70 69 69 68 68 67 67 66 66 65 65
71 71 72 72 73 73 73 73 73 73 73 72 72 72 72 72 71 72 72 72 73 73 74 75 75 76 77 78 79 80 81 81 82 82 82 81 81 80 80 79 78 77 77 77 76 76 77 77 77 78 78 79 80 80 81 81 81 81 81 81 81 80 80 79 79 78 77 76 75 74 73 72 71 70 69 68 68 67 66 66 65 65 64 64 63 63
72 72 72 73 73 73 73 73 73 73 72 72 72 72 72 72 72 72 72 73 73 73 74 75 75 76 77 78 79 80 81 81 81 80 80 79 78 78 77 76 75 75 74 74 75 75 76 77 78 79 80 80 81 82 82 82 82 82 82 81 81 80 79 78 78 77 76 75 74 72 71 70 69 68 67 66 65 64 64 63 62 62 62 61 61 61
72 73 73 73 73 73 72 73 73 72 72 72 72 72 72 73 73 73 73 73 73 74 74 74 75 76 77 79 79 80 80 79 79 78 77 76 75 74 73 73 73 72 72 73 74 75 77 78 79 80 81 81 82 82 82 82 82 81 81 80 79 79 78 77 76 75 73 72 71 70 69 68 67 65 64 63 62 61 61 60 59 59 59 58 58 58
73 73 73 73 72 72 72 72 72 72 72 72 72 72 72 73 73 73 73 74 74 74 74 74 75 76 78 79 79 79 78 77 76 75 74 73 72 71 70 70 71 71 72 73 74 76 78 78 79 80 80 80 80 80 80 80 80 79 79 78 77 76 75 74 73 72 71 70 69 68 67 65 64 63 62 61 59 59 58 57 57 56 56 55 55 55
73 73 72 72 72 72 72 72 72 72 72 73 72 73 73 73 74 74 74 74 74 74 74 75 75 77 78 78 78 77 76 75 73 71 70 70 70 69 69 69 70 71 72 73 75 77 78 78 78 78 78 78 78 77 77 77 76 76 75 75 74 74 73 72 71 70 69 68 67 66 64 63 62 61 59 58 57 56 55 54 54 53 53 52 52 52
73 72 72 72 72 72 72 72 72 73 73 73 73 73 73 74 74 74 74 74 74 74 75 75 76 76 77 77 76 74 73 72 71 69 67 67 67 68 68 68 70 71 73 73 74 75 76 76 75 75 74 74 74 73 73 73 73 72 72 72 71 71 70 70 69 68 67 66 65 64 62 61 60 59 57 56 55 54 53 52 51 51 50 50 50 50
72 72 72 72 72 72 72 73 73 73 73 74 74 74 74 74 74 74 74 74 74 75 75 76 75 75 74 74 74 72 70 68 67 67 65 64 65 67 68 69 70 71 72 72 72 72 72 72 71 71 70 70 70 69 69 69 69 69 69 69 68 68 67 67 66 65 65 64 62 61 60 59 58 56 55 54 53 52 51 50 49 48 48 47 47 47
72 72 72 72 72 73 73 73 74 74 74 74 74 74 74 74 74 74 74 74 75 75 76 76 75 73 71 70 70 70 68 65 64 64 63 63 64 66 68 69 69 69 69 69 68 68 68 67 67 66 66 66 66 66 66 66 66 66 66 65 65 65 65 64 63 63 62 61 60 59 58 57 55 54 53 52 51 50 49 48 47 46 46 45 45 45
72 72 72 73 73 74 74 74 75 75 75 75 75 75 75 75 74 74 74 75 75 75 75 74 73 71 69 66 66 66 65 62 62 61 61 62 63 65 67 67 66 66 65 64 64 64 64 63 63 62 62 62 62 62 63 63 63 63 63 63 63 62 62 61 60 60 59 58 57 56 55 54 53 52 51 50 49 48 47 46 45 44 44 44 43 43
73 73 73 74 74 75 75 75 76 76 76 75 75 75 74 74 74 75 75 75 75 75 74 72 70 68 66 63 63 63 62 60 60 60 60 61 62 63 64 63 62 61 61 61 61 61 60 60 59 58 58 58 59 60 60 61 61 61 61 61 60 60 59 58 58 57 56 55 54 53 52 51 50 49 48 47 47 46 45 44 43 43 42 42 42 41
74 74 75 75 75 75 76 76 77 76 76 76 75 75 75 75 75 75 75 75 74 73 71 68 66 64 62 60 59 59 59 58 59 59 60 60 60 60 60 59 58 58 58 58 58 58 57 57 56 55 55 56 56 57 58 59 59 59 59 58 58 57 57 56 55 54 53 52 51 49 48 47 47 46 46 45 44 44 43 42 42 41 41 41 40 40
75 75 76 76 76 76 77 77 77 77 77 76 75 75 75 75 75 75 75 74 72 70 67 64 62 60 58 56 56 57 57 58 59 59 59 58 57 56 56 55 55 55 55 55 55 55 55 54 53 53 53 53 54 55 56 56 56 56 56 56 55 55 54 53 52 51 50 49 47 46 45 44 44 43 43 42 42 41 41 40 40 40 39 39 39 39
76 76 77 77 78 78 77 77 77 77 77 76 76 75 76 75 75 74 73 71 68 66 63 60 58 56 54 53 54 55 57 58 58 58 57 55 53 53 52 52 52 52 52 52 53 53 52 52 51 51 51 52 52 53 53 53 54 54 53 53 53 52 51 50 49 48 47 46 44 43 42 41 41 40 40 40 39 39 39 38 38 38 38 38 38 37
77 78 78 78 78 78 78 78 77 77 77 76 76 76 76 75 74 72 70 68 65 62 59 56 53 52 52 52 54 56 57 58 57 56 54 52 50 50 50 50 50 50 50 50 50 50 50 49 49 49 49 50 50 50 51 51 51 51 51 51 50 50 49 48 47 46 45 44 42 41 40 39 39 38 38 37 37 37 37 37 37 37 37 37 37 36
79 79 79 79 79 79 78 78 78 77 77 77 76 76 75 74 72 69 66 63 60 57 54 51 49 49 50 52 53 55 57 56 55 53 51 49 48 48 48 48 48 48 48 48 48 48 47 47 46 46 47 47 48 48 48 49 49 49 49 49 48 48 47 47 46 45 43 42 41 39 38 38 37 36 36 36 36 35 35 35 35 35 35 35 35 35
80 80 80 80 80 79 79 78 78 78 77 77 76 75 73 70 67 64 61 57 54 51 49 48 47 48 49 51 53 54 55 54 53 50 49 48 47 47 47 46 46 46 46 46 46 45 45 44 44 44 45 45 46 46 47 47 47 48 48 48 47 47 47 46 45 44 43 42 40 39 38 37 36 35 35 35 35 34 34 34 34 34 34 34 34 34
81 81 81 80 80 80 79 79 78 78 77 76 74 72 69 65 61 58 54 51 49 47 46 45 46 47 49 50 52 53 53 52 50 48 47 47 46 46 45 44 44 44 44 44 43 43 42 41 41 42 42 43 44 44 45 46 47 47 47 47 47 47 47 46 46 45 44 42 41 39 38 37 36 35 35 34 34 34 33 33 33 33 33 33 33 33
82 82 82 81 81 80 79 79 78 77 75 73 70 67 63 59 55 51 49 47 45 44 44 44 45 47 48 50 51 51 51 50 48 47 46 46 46 45 44 43 42 42 42 42 41 40 40 39 39 40 40 41 42 43 44 45 46 46 47 47 47 47 47 47 46 46 45 43 42 41 39 38 37 36 35 34 34 33 33 33 33 33 32 32 32 32
83 83 83 82 81 80 79 77 76 74 71 68 65 61 57 52 48 45 44 43 42 42 43 44 46 47 48 49 49 49 49 48 47 46 46 45 45 44 43 42 41 41 41 40 39 38 37 37 38 38 39 39 40 41 42 44 45 45 46 46 47 47 47 47 47 46 46 44 43 42 40 39 37 36 35 34 34 33 33 32 32 32 32 31 31 31
84 84 83 82 81 79 77 74 72 69 65 62 57 54 50 46 43 40 40 40 40 41 43 45 47 48 48 48 47 47 47 47 46 46 45 45 44 42 41 40 40 39 39 39 38 36 35 35 36 37 37 38 38 39 41 42 43 43 44 45 45 46 46 46 46 46 45 45 44 42 41 40 39 37 36 35 34 33 33 33 32 32 31 31 31 30
84 83 82 80 78 75 72 69 66 62 58 54 50 46 43 40 38 37 37 39 40 42 44 45 47 48 48 47 46 45 45 45 45 45 45 44 42 41 40 39 38 38 38 38 37 36 34 34 34 35 36 36 37 38 39 40 40 41 41 42 42 43 44 44 45 45 44 44 43 42 41 40 39 38 37 36 35 34 33 33 32 32 31 31 30 30
82 80 78 75 73 69 66 62 58 54 50 46 42 39 37 35 35 36 37 39 41 42 44 46 47 47 47 46 45 44 44 44 44 44 43 42 41 39 38 37 37 36 36 36 36 36 35 34 33 34 34 35 36 37 37 38 38 39 39 39 40 41 42 42 43 43 43 42 42 41 41 40 39 38 37 36 35 35 34 33 32 32 31 30 29 29
78 75 72 69 65 62 58 53 49 45 41 38 35 33 33 33 34 36 38 40 41 43 44 46 46 46 46 45 44 43 43 43 43 43 42 41 39 38 37 36 36 35 35 35 35 35 35 34 33 33 33 33 34 35 36 37 37 37 37 38 38 39 39 40 40 40 40 40 40 40 39 39 38 37 37 36 35 34 33 32 32 31 30 29 28 27
71 68 65 61 57 53 49 44 40 37 34 31 30 30 31 33 35 37 38 40 42 43 45 45 46 45 44 43 42 42 42 42 42 42 41 39 38 36 36 35 35 35 34 34 34 34 34 34 33 32 32 32 33 34 34 35 36 36 37 37 37 37 38 38 38 38 38 38 38 38 38 37 36 36 35 34 33 32 32 31 30 30 29 27 26 25
64 60 56 52 48 44 40 36 32 30 28 28 28 30 32 33 35 37 39 40 42 43 44 45 45 44 43 42 41 41 40 41 41 40 39 38 37 36 35 35 35 35 34 34 34 34 34 33 33 32 31 31 31 32 33 34 34 35 35 36 36 37 37 37 37 37 37 36 36 36 36 35 34 33 33 32 31 30 29 29 28 27 26 25 24 23
55 51 47 43 38 34 31 28 26 25 26 27 28 30 32 34 36 37 39 40 42 43 44 44 44 43 42 41 40 40 40 40 40 39 38 37 36 35 35 35 35 35 35 35 35 34 34 33 33 32 32 31 30 31 32 32 33 34 34 35 35 36 36 37 37 36 36 35 35 34 33 32 31 30 30 29 28 27 27 26 25 25 24 23 21 21
46 42 38 33 29 26 24 23 23 24 25 27 29 31 32 34 36 37 39 40 42 43 43 44 43 42 41 40 40 39 39 39 38 38 37 36 35 35 35 35 36 36 37 36 36 35 34 34 33 32 32 31 30 30 30 31 31 32 32 33 34 35 36 36 37 36 36 35 34 33 32 30 29 28 27 26 26 25 24 24 23 23 22 21 20 20
36 32 28 24 22 20 20 21 23 24 26 28 30 31 33 34 36 37 39 40 41 42 43 43 42 41 41 40 39 39 38 38 38 37 37 36 36 35 36 36 36 37 37 37 37 37 36 35 34 33 32 31 31 30 30 30 30 30 30 31 32 33 34 36 36 36 35 35 34 33 31 29 28 26 26 25 24 23 23 22 22 21 21 20 19 19
26 22 20 18 18 18 19 21 23 25 27 29 30 31 33 34 36 37 38 40 41 41 42 42 41 40 40 39 39 38 38 38 38 37 36 36 36 36 36 36 37 37 37 38 38 38 38 37 36 35 33 32 31 30 30 30 29 29 28 28 29 31 32 34 35 35 34 34 33 32 30 29 27 26 25 24 23 22 22 21 21 20 20 19 18 18
18 16 15 15 16 18 20 22 24 26 28 29 30 31 33 34 36 37 38 39 40 41 41 41 40 40 39 39 38 38 38 38 37 37 37 37 37 37 37 37 37 37 37 38 38 39 39 38 37 36 35 33 32 31 30 30 29 28 27 26 26 27 29 31 33 33 33 32 32 31 29 28 26 25 24 24 23 22 21 21 20 20 19 18 17 16
13 13 14 15 17 19 21 23 25 27 28 29 30 31 32 34 35 37 38 39 40 40 40 40 39 39 39 38 38 38 38 38 38 37 37 37 37 37 37 37 37 37 37 38 38 38 38 38 38 37 36 35 33 32 31 30 29 28 27 26 25 25 27 28 30 31 31 31 30 29 28 27 26 25 24 24 23 23 22 21 19 18 18 17 15 15
12 13 15 17 19 21 23 24 26 27 28 29 30 31 32 34 35 36 38 39 39 40 40 39 39 38 38 38 38 38 38 38 38 38 37 37 37 37 36 37 37 37 37 37 37 37 37 38 37 37 36 35 34 33 31 30 30 29 28 27 26 25 25 26 28 29 29 29 29 28 27 26 25 24 23 23 23 23 22 21 19 18 17 15 14 13
13 15 17 19 21 22 24 25 26 28 29 29 30 31 33 34 35 36 37 38 39 39 39 39 38 37 37 37 37 37 37 38 38 38 37 37 36 36 36 36 36 37 37 37 36 36 36 36 36 36 36 35 34 33 32 31 31 30 29 28 27 26 25 26 27 28 28 28 28 27 26 25 24 23 22 22 22 22 22 20 19 17 16 14 13 12
15 17 19 20 22 24 25 26 27 28 29 30 31 32 33 34 35 36 37 38 38 39 39 38 38 37 37 36 36 36 36 37 37 37 37 36 36 35 35 35 36 36 36 36 35 35 34 34 34 34 34 34 34 34 33 33 32 31 31 30 29 28 27 27 27 27 28 28 28 28 27 25 24 22 21 21 21 21 21 20 19 17 16 14 12 11
17 19 20 22 23 24 26 27 28 29 29 30 31 32 33 34 35 36 37 38 38 38 38 38 38 37 36 36 35 35 35 35 36 36 36 36 35 35 35 35 35 35 35 35 35 34 33 32 32 32 32 33 33 33 34 34 34 33 33 32 31 30 29 29 28 28 28 28 28 28 27 26 24 22 21 20 20 20 19 19 18 17 15 14 12 11
19 20 22 23 24 25 26 27 28 29 30 31 32 33 34 35 36 37 37 38 38 38 38 38 38 37 36 36 35 35 34 34 34 34 35 34 34 34 35 35 35 35 35 34 34 33 32 32 31 31 31 31 32 33 34 35 35 35 34 33 32 31 31 30 30 30 30 29 29 29 28 27 26 24 22 21 20 19 18 18 17 16 15 13 12 10
20 22 23 24 25 26 27 28 29 30 31 32 33 34 35 36 36 37 37 38 38 38 38 38 37 37 37 36 36 35 34 34 34 34 34 33 33 34 34 34 35 35 35 34 33 32 32 32 32 32 32 32 32 32 33 35 35 36 35 34 33 32 32 31 30 30 30 30 30 30 29 28 27 26 24 22 21 20 18 17 16 15 14 13 11 10
22 23 24 25 26 27 28 29 30 31 32 33 34 35 36 36 37 37 37 37 37 37 37 37 37 37 37 36 36 35 35 35 34 34 33 33 33 33 33 34 34 35 34 34 33 32 32 32 32 33 33 33 33 33 34 35 36 36 36 35 34 33 32 31 30 30 30 29 29 30 30 29 28 27 26 25 23 22 21 19 17 16 15 13 12 11
23 24 25 26 27 28 29 30 31 32 33 34 35 36 36 37 37 37 37 37 37 37 37 37 37 36 36 36 36 36 35 35 35 34 34 33 33 33 33 33 34 34 34 34 33 33 32 32 33 34 34 34 34 34 34 35 35 36 36 35 34 33 32 30 29 29 28 28 28 28 29 29 29 28 27 26 26 25 23 22 20 18 17 15 14 13
24 25 26 28 29 30 31 32 32 33 34 35 36 36 36 37 37 37 37 37 37 37 37 36 36 36 36 36 36 35 35 35 35 35 34 34 33 33 33 33 33 33 33 33 33 32 32 32 32 33 34 35 36 35 35 36 36 36 35 35 34 33 32 30 29 28 27 26 26 26 27 27 28 28 28 27 27 26 26 25 23 22 19 17 16 15
26 27 28 29 30 31 32 33 34 34 35 35 36 36 36 36 36 36 36 36 36 36 36 36 36 36 36 36 35 35 35 35 35 35 34 34 34 33 33 33 34 34 33 33 32 32 31 31 30 31 33 35 36 36 37 36 36 36 35 35 34 33 32 30 28 26 25 25 24 24 25 25 26 26 27 27 26 26 26 26 26 25 23 20 18 17
Wind_Direction
299 299 299 298 298 297 297 296 296 296 296 297 297 298 298 299 299 299 299 299 299 299 299 298 298 297 297 297 297 296 296 296 296 295 295 295 295 295 294 294 294 294 294 293 293 293 293 292 292 292 291 291 290 290 290 289 289 288 287 287 286 285 285 284 283 283 282 281 280 280 279 278 278 277 276 276 275 275 274 273 273 272 272 271 271 271
297 297 297 297 297 296 296 296 295 296 296 297 297 298 299 299 299 299 299 299 299 299 298 298 298 298 298 297 297 297 297 296 296 296 296 296 296 296 295 295 295 295 295 295 294 294 294 293 293 293 292 292 291 291 291 290 289 289 288 287 287 286 285 284 284 283 282 282 281 280 280 279 278 277 277 276 275 275 274 274 273 272 272 271 271 271
295 295 295 296 296 295 295 295 296 296 297 297 298 298 299 299 299 299 299 299 299 299 298 298 298 298 298 298 298 297 297 297 297 297 297 297 297 296 296 296 296 296 296 296 296 295 295 295 294 294 293 293 292 292 291 291 290 289 289 288 287 286 286 285 284 283 283 282 281 281 280 280 279 278 278 277 276 275 275 274 273 273 272 272 271 271
293 294 294 295 295 295 295 296 296 297 297 298 298 299 299 299 299 299 299 299 299 298 298 298 298 298 298 298 298 298 298 298 297 297 297 297 297 297 297 297 297 297 297 297 297 296 296 296 295 295 294 294 293 292 292 291 290 289 289 288 287 286 286 285 284 284 283 283 282 281 281 280 280 279 278 278 277 276 275 275 274 273 273 272 271 271
292 293 294 295 295 296 296 296 297 297 298 298 299 299 299 299 299 299 299 299 299 299 299 299 299 299 299 298 298 298 298 298 298 298 298 298 299 299 299 299 299 299 298 298 298 297 297 296 296 295 295 294 293 293 292 291 290 289 289 288 287 287 286 285 285 284 283 283 282 282 281 281 280 279 279 278 277 277 276 275 274 274 273 272 271 271
292 293 294 295 296 296 297 297 297 298 298 299 299 299 299 299 299 299 299 299 299 299 299 299 299 299 299 299 299 299 299 299 299 299 299 300 300 300 300 300 300 300 299 299 298 298 297 297 296 295 295 294 293 293 292 291 290 290 289 288 287 287 286 285 285 284 284 283 282 282 281 281 280 280 279 278 278 277 276 275 275 274 273 272 271 270
293 294 295 296 297 297 297 298 298 298 299 299 299 299 299 299 299 299 299 299 299 299 300 300 300 300 300 299 299 299 299 300 300 300 301 301 301 301 301 301 301 300 300 299 299 298 297 297 296 295 295 294 293 293 292 291 290 290 289 288 288 287 286 285 285 284 284 283 282 282 281 281 280 280 279 278 278 277 276 275 275 274 273 272 271 270
295 295 296 297 297 298 298 298 299 299 299 299 299 299 299 299 299 299 300 300 300 300 300 300 300 300 300 300 300 300 300 301 301 301 302 302 302 302 302 301 301 300 300 299 298 298 297 296 296 295 295 294 293 293 292 291 291 290 289 288 288 287 286 286 285 284 284 283 283 282 281 281 280 280 279 278 278 277 276 275 274 273 272 271 270 269
296 297 297 298 298 298 299 299 299 299 299 299 299 299 299 299 300 300 300 300 300 301 301 301 301 301 301 301 301 301 301 302 302 302 302 302 302 302 302 301 301 300 299 299 298 297 297 296 296 295 295 294 294 293 292 291 291 290 289 289 288 287 286 286 285 285 284 283 283 282 281 281 280 279 279 278 277 277 276 275 274 273 272 271 270 269
297 298 298 298 299 299 299 299 299 299 299 299 299 299 300 300 300 300 301 301 301 301 301 301 301 301 301 301 302 302 302 303 303 303 303 303 302 302 302 301 300 300 299 299 298 297 297 296 296 296 295 295 294 293 293 292 291 290 290 289 288 288 287 286 285 285 284 284 283 282 281 281 280 279 279 278 277 276 275 275 274 273 272 270 269 268
298 299 299 299 299 299 299 299 299 299 299 299 300 300 300 300 300 301 301 301 301 301 302 302 302 302 302 302 302 303 303 303 304 303 303 303 302 302 301 301 300 299 299 298 298 297 297 297 297 296 296 295 294 294 293 292 292 291 290 290 289 288 287 287 286 285 284 284 283 282 282 281 280 279 279 278 277 276 275 274 273 272 271 270 269 268
299 299 299 299 299 299 299 299 299 299 299 300 300 300 300 301 301 301 301 301 302 302 302 302 302 302 302 303 303 303 304 304 304 303 303 303 302 301 301 300 300 299 299 299 298 298 298 297 297 297 296 296 295 294 294 293 292 292 291 290 289 289 288 287 286 285 285 284 283 283 282 281 280 280 279 278 277 276 275 274 273 272 271 270 268 267
299 299 299 299 299 299 299 299 299 299 299 300 300 300 301 301 301 302 302 302 302 302 302 302 303 303 303 303 304 304 304 303 303 303 303 302 301 301 300 300 300 300 299 299 299 299 298 298 298 297 297 296 296 295 294 294 293 292 291 291 290 289 288 287 287 286 285 284 284 283 282 281 280 279 279 278 277 275 274 273 272 271 270 269 268 267
299 299 299 299 299 299 299 299 299 299 299 300 300 301 301 301 302 302 302 302 302 302 302 303 303 303 304 304 304 304 303 303 303 302 302 301 301 300 300 300 300 300 300 300 299 299 299 299 298 298 297 297 296 295 295 294 293 293 292 291 290 289 289 288 287 286 285 284 284 283 282 281 280 279 278 277 276 275 274 273 272 271 270 269 268 267
298 298 298 298 298 298 299 299 299 299 300 300 301 301 301 302 302 302 302 302 302 303 303 303 304 304 304 304 303 303 303 302 302 302 301 301 300 300 300 300 301 301 301 300 300 300 299 299 299 298 298 297 296 296 295 294 293 293 292 291 290 290 289 288 287 286 285 284 284 283 282 281 280 279 278 277 276 275 274 273 272 271 270 269 268 267
298 298 298 298 298 299 299 299 300 300 300 301 301 302 302 302 302 303 303 303 303 303 304 304 305 305 304 304 303 302 301 302 302 301 301 301 301 300 301 301 302 302 302 302 301 301 300 300 300 299 298 297 297 296 295 294 293 293 292 291 290 290 289 288 287 286 285 285 284 283 282 281 280 279 278 277 275 274 273 272 271 270 269 269 268 267
298 298 298 298 299 299 299 300 300 300 301 301 302 302 302 303 303 303 303 303 303 304 304 305 305 305 304 303 302 301 300 301 301 301 301 301 301 301 302 302 303 303 303 303 302 302 301 301 300 299 299 298 297 296 295 294 293 292 292 291 290 289 289 288 287 286 285 284 284 283 282 281 280 279 278 276 275 274 273 272 271 270 269 269 268 268
298 298 299 299 299 299 300 300 301 301 301 302 302 303 303 303 303 303 303 304 304 305 305 305 305 304 303 302 301 300 300 300 301 301 302 302 302 302 303 303 304 304 304 304 303 303 302 301 301 300 299 298 297 296 295 294 293 292 292 291 290 289 288 288 287 286 285 285 284 283 282 281 280 279 278 277 275 274 273 272 271 270 269 268 268 268
299 299 299 299 300 300 300 301 301 301 302 302 303 303 303 303 303 303 304 304 305 305 305 305 305 304 302 301 300 300 300 300 301 302 302 303 303 303 304 304 305 305 305 305 304 304 303 302 301 300 299 298 297 296 295 295 294 293 292 292 291 290 289 288 287 287 286 285 284 284 283 282 281 279 278 277 276 274 273 272 270 269 269 269 269 269
299 299 300 300 300 301 301 301 301 302 302 302 303 303 303 303 303 304 304 305 305 305 305 304 304 303 301 300 300 299 299 300 301 302 303 304 304 304 305 306 307 307 307 306 305 304 304 303 302 301 300 299 298 297 296 296 295 294 294 293 292 291 290 290 289 288 287 286 286 285 284 283 281 280 279 277 276 274 273 271 270 269 269 269 269 270
300 300 300 300 301 301 301 301 302 302 302 302 303 303 303 303 304 304 305 305 305 305 304 303 302 301 300 300 299 299 299 301 302 303 304 305 306 306 307 308 308 309 308 307 306 305 305 304 303 302 301 300 299 298 297 297 296 296 295 295 294 293 292 291 291 290 289 288 287 286 285 284 282 281 279 278 276 274 273 271 270 269 269 269 270 270
300 300 300 300 301 301 301 301 302 302 302 303 303 303 303 304 304 305 305 305 304 304 303 302 301 300 300 299 299 299 300 301 303 304 305 307 308 308 309 310 310 310 310 309 308 307 306 306 305 304 302 301 300 299 299 298 298 297 297 296 296 295 294 294 293 292 291 290 289 288 287 285 284 282 280 278 277 275 273 271 270 269 269 269 270 270
300 300 300 301 301 301 301 301 302 302 302 302 303 303 303 304 305 305 304 304 303 302 302 301 300 299 299 299 300 300 301 303 304 306 307 309 310 310 311 312 312 312 311 310 310 309 309 308 307 306 304 303 302 301 300 300 299 299 298 298 297 297 296 295 295 294 294 293 292 290 289 287 285 283 281 280 278 276 274 272 271 270 270 270 270 270
300 300 300 300 300 301 301 301 302 302 302 302 303 303 304 304 305 304 304 303 302 301 300 300 299 299 299 300 301 302 303 305 306 308 309 310 312 312 313 313 313 313 312 312 312 312 311 311 310 308 306 305 303 302 302 301 301 300 300 299 298 298 298 297 297 296 296 295 294 292 291 289 287 285 283 281 279 277 276 274 272 271 270 270 270 270
300 300 300 300 300 301 301 301 301 302 302 302 303 303 304 304 304 304 303 302 301 300 299 299 299 299 300 302 303 304 305 306 307 309 310 311 312 313 313 313 313 313 313 314 314 314 315 314 312 310 308 306 305 304 303 302 302 301 301 300 300 299 299 299 298 298 298 297 296 295 293 292 290 288 286 284 282 280 278 276 274 273 271 270 270 269
300 300 300 300 300 300 301 301 301 302 302 302 303 303 304 304 303 302 301 299 299 298 298 299 300 301 302 304 305 306 306 307 308 309 310 312 312 313 313 313 314 314 314 315 316 317 317 317 315 313 310 309 307 306 304 303 303 302 302 301 301 301 301 300 300 300 300 299 299 298 296 295 293 291 289 287 285 283 281 279 277 274 273 271 270 270
299 299 299 300 300 300 301 301 301 302 302 302 303 303 303 302 301 300 298 297 297 298 299 300 301 303 304 306 306 307 307 307 308 309 310 311 312 312 313 313 314 314 315 316 318 319 320 319 318 316 313 311 310 308 306 305 304 303 303 303 303 303 303 303 303 302 302 302 302 301 300 298 297 295 293 291 288 286 284 281 279 276 274 272 271 270
299 299 299 299 300 300 301 301 301 302 302 302 303 302 302 300 299 297 296 296 297 299 300 302 303 305 306 307 307 307 307 307 308 309 310 311 311 312 313 313 313 314 315 317 319 321 322 321 320 319 317 315 313 310 308 307 306 305 305 305 305 305 304 304 304 305 305 305 305 304 303 302 300 298 296 294 291 289 286 284 281 278 276 274 272 271
299 299 299 299 300 300 301 301 301 302 302 302 302 301 300 298 297 296 296 297 299 300 302 304 305 307 308 308 308 308 307 307 308 309 310 311 311 312 312 313 313 314 315 317 320 322 323 322 322 321 320 318 316 313 311 309 308 307 307 306 306 306 306 306 306 307 307 307 306 306 305 304 302 300 298 296 294 291 288 285 282 280 277 275 273 272
298 298 299 299 300 300 301 301 301 301 301 301 300 299 297 296 296 296 297 299 301 303 305 306 307 308 309 309 309 308 307 307 308 309 310 311 311 312 313 313 314 315 316 317 319 321 322 322 322 321 321 320 318 316 314 312 311 310 309 308 308 307 307 307 308 308 308 308 308 307 306 305 304 302 300 297 295 292 290 287 284 281 279 277 275 272
298 299 299 300 300 301 301 301 301 301 300 299 298 297 296 296 296 298 300 302 304 306 307 308 309 310 310 310 309 308 307 307 308 309 310 311 312 312 313 314 315 315 316 317 318 320 321 321 321 321 321 320 319 317 316 315 314 313 312 311 310 309 309 309 309 309 309 309 309 308 307 306 305 303 301 299 297 294 291 289 286 283 281 278 276 273
299 299 300 300 301 301 301 301 300 299 298 297 296 295 295 297 298 301 303 305 307 308 310 310 311 311 311 310 309 308 308 308 309 309 311 311 312 313 314 314 315 316 317 317 318 319 320 321 321 321 321 320 319 318 317 316 316 315 314 313 312 311 310 310 310 310 310 310 310 309 309 308 307 305 304 302 299 297 294 291 288 286 283 280 277 274
299 299 300 300 301 301 300 300 299 298 296 295 295 295 297 299 301 303 306 308 309 310 311 312 312 311 311 310 309 309 308 309 310 310 311 312 313 313 314 315 316 317 318 318 318 319 320 320 321 321 321 320 319 318 317 317 316 316 316 315 314 313 313 312 312 312 312 312 311 311 310 309 309 308 306 305 302 300 297 294 291 288 286 283 279 276
299 300 300 300 300 300 299 298 297 296 295 295 296 298 300 302 304 306 308 310 311 312 313 313 312 312 311 310 310 309 309 310 311 311 312 313 313 314 315 316 318 318 319 319 320 320 320 321 321 322 322 321 320 319 318 318 317 317 316 316 316 315 315 314 314 314 314 314 313 313 312 312 312 311 310 308 306 303 301 298 295 291 288 285 281 277
300 300 300 300 300 299 298 296 295 294 295 296 298 300 302 305 307 309 311 312 313 314 314 314 313 312 312 311 310 310 311 311 312 313 313 314 314 315 317 318 319 319 320 320 320 321 321 321 322 322 323 323 322 320 319 319 319 318 318 318 318 318 317 317 317 317 317 317 316 316 315 315 315 315 313 312 310 307 304 301 297 294 290 286 281 276
300 300 300 299 298 297 296 295 294 295 297 299 301 303 305 307 309 311 313 314 315 315 315 315 314 313 312 312 312 312 312 313 313 314 314 314 315 317 318 319 320 320 320 320 321 321 321 321 322 323 324 324 323 322 321 320 320 320 320 320 320 320 320 320 320 321 321 320 320 320 320 320 320 319 318 316 314 311 308 304 299 295 290 285 279 273
300 300 299 298 297 296 295 295 296 298 300 302 304 306 308 310 312 313 314 315 316 317 316 316 316 315 314 313 313 313 313 314 314 315 315 316 317 318 319 320 320 321 321 321 321 321 321 321 322 323 324 324 324 323 322 321 321 322 322 322 322 322 322 323 323 324 324 324 324 325 325 326 325 325 323 321 318 314 310 305 300 295 290 284 277 270
300 300 298 297 296 295 296 297 299 301 303 305 307 309 310 312 313 315 316 317 317 318 318 318 318 317 316 315 315 315 315 315 316 316 317 317 318 319 320 320 320 320 320 320 320 320 321 321 321 322 323 324 324 324 323 322 322 322 323 323 323 323 323 323 324 325 326 326 327 328 329 330 330 329 327 325 321 317 312 306 301 296 291 284 277 270
301 299 298 297 297 297 299 301 302 304 306 307 309 311 312 313 315 316 317 318 319 320 320 321 320 320 319 318 317 317 317 317 317 318 318 318 319 319 320 320 320 320 320 320 320 320 320 321 321 322 323 324 324 324 323 322 322 322 323 323 323 322 322 322 323 324 325 326 327 329 330 332 332 331 329 327 323 319 314 309 303 298 294 288 281 273
302 300 299 300 300 301 302 304 305 307 308 309 311 312 313 315 316 317 319 320 321 322 323 323 323 322 321 320 319 319 318 318 318 318 319 319 319 320 320 320 320 321 321 321 321 321 321 321 321 322 322 323 324 323 323 322 321 321 322 322 323 322 321 321 321 322 324 325 326 328 329 331 332 331 330 327 324 321 317 312 308 303 299 294 288 279
305 304 303 303 304 304 306 306 308 309 310 311 312 313 315 316 317 319 320 321 323 324 325 325 325 324 323 322 321 320 319 319 319 319 319 319 320 320 320 320 321 321 321 321 321 321 320 321 321 322 322 323 324 324 323 322 322 321 321 321 322 322 321 320 320 321 322 324 325 327 328 330 331 331 329 327 325 322 320 317 314 310 306 302 296 288
309 308 307 307 308 308 309 309 310 311 311 312 314 315 316 317 319 320 322 323 324 325 326 327 327 326 325 324 322 321 320 319 319 319 319 319 320 320 320 321 321 322 322 322 321 321 321 321 321 322 322 323 324 324 324 323 323 322 321 321 321 321 321 320 320 320 322 323 324 326 327 328 329 329 328 326 325 323 322 321 320 317 314 310 305 297
313 312 311 311 311 311 311 312 312 312 313 314 315 316 317 318 320 321 323 324 326 326 327 328 327 327 326 325 323 322 321 320 319 319 319 319 320 320 321 322 322 323 323 322 322 322 321 321 322 322 323 324 324 325 325 325 324 324 323 323 322 321 321 321 320 320 321 322 323 324 326 327 328 329 328 326 325 324 323 323 323 322 319 316 311 304
316 315 314 314 313 313 313 314 314 314 314 315 316 317 318 319 321 322 323 325 326 327 328 328 328 328 327 325 323 322 320 319 318 318 318 319 320 321 322 323 323 324 324 324 323 323 323 322 322 323 323 324 324 325 325 325 325 325 325 325 324 323 323 321 321 320 320 321 321 322 323 325 327 327 327 325 324 323 323 323 323 323 322 319 315 308
318 318 317 316 315 315 315 315 315 315 316 316 317 318 319 320 321 323 324 325 326 327 328 329 329 328 327 325 324 322 320 319 318 318 319 319 320 322 322 323 324 325 325 325 325 325 324 324 323 323 324 324 325 325 325 325 325 325 326 326 325 325 324 323 321 320 320 320 320 320 320 321 323 324 324 324 323 321 320 320 320 320 319 318 315 310
320 319 318 317 316 316 316 316 316 317 317 318 318 319 320 321 322 323 324 325 326 328 328 329 329 328 327 326 324 322 320 319 319 319 319 320 321 322 323 324 325 325 326 327 327 326 326 325 324 324 324 325 325 325 325 324 324 324 325 325 325 325 324 323 322 321 320 319 318 318 317 318 318 319 320 320 320 318 316 315 314 314 313 312 309 305
321 319 318 318 317 317 317 317 317 318 318 319 320 320 321 321 322 323 324 325 326 327 328 329 329 329 328 326 324 322 321 320 319 319 320 321 322 322 323 324 325 326 328 328 328 328 327 326 325 325 325 325 325 325 324 323 323 323 323 323 323 323 323 322 321 320 319 318 317 316 315 314 314 315 315 316 315 314 312 310 308 305 304 302 299 296
320 319 319 318 318 318 317 318 318 319 320 320 321 321 321 321 322 322 323 325 326 327 328 329 329 329 328 327 325 324 322 321 320 320 321 321 322 322 323 324 325 327 329 329 330 329 329 328 327 326 325 325 325 325 324 323 322 321 321 322 322 322 321 321 320 319 318 316 315 314 313 312 311 311 311 311 310 310 308 306 303 299 295 292 288 285
320 319 319 319 318 318 318 319 319 320 321 321 321 321 321 321 321 322 323 324 325 327 328 328 329 329 328 327 326 325 323 322 321 321 321 321 322 322 323 324 326 328 329 330 331 331 330 329 328 327 326 325 325 325 324 323 322 321 321 321 321 321 320 319 318 317 316 314 313 311 310 309 308 307 307 306 306 306 305 304 301 297 292 287 282 279
320 319 319 319 319 319 319 320 320 321 321 321 321 320 320 320 320 321 322 324 325 326 327 328 328 329 328 328 327 326 325 324 323 322 322 321 322 322 323 324 326 328 330 331 331 331 331 330 329 328 326 325 325 324 323 323 322 322 321 321 321 321 320 319 318 316 315 313 311 309 307 306 305 304 304 303 302 302 302 301 300 297 292 287 282 277
320 320 320 319 320 320 320 320 321 321 321 320 320 320 319 319 320 320 321 323 325 326 327 328 328 329 329 329 328 328 327 325 324 323 323 322 322 323 323 325 326 328 329 331 331 331 330 330 329 329 327 325 324 323 323 323 323 323 323 323 323 323 322 321 320 318 316 313 311 309 306 304 303 301 301 300 299 298 298 297 297 295 292 289 284 279
Height
5644 5643 5641 5639 5638 5635 5633 5631 5629 5627 5625 5623 5622 5620 5618 5616 5613 5612 5610 5608 5605 5603 5601 5599 5597 5595 5593 5591 5589 5587 5585 5583 5581 5579 5577 5575 5573 5571 5569 5568 5566 5564 5562 5560 5558 5556 5554 5552 5550 5548 5546 5544 5542 5540 5538 5536 5534 5532 5530 5528 5526 5523 5522 5519 5518 5516 5514 5513 5511 5509 5508 5507 5506 5505 5504 5503 5502 5501 5500 5499 5498 5497 5496 5495 5495 5494
5639 5638 5636 5634 5633 5631 5628 5626 5624 5623 5620 5618 5617 5615 5613 5611 5608 5606 5604 5602 5600 5598 5595 5593 5591 5589 5587 5584 5582 5580 5578 5576 5574 5572 5570 5568 5566 5564 5562 5560 5558 5556 5554 5552 5550 5548 5545 5543 5541 5539 5537 5535 5533 5531 5528 5526 5524 5522 5519 5517 5515 5513 5511 5509 5507 5505 5503 5502 5500 5499 5498 5497 5496 5495 5494 5493 5492 5491 5490 5489 5488 5487 5487 5486 5485 5485
5635 5633 5631 5629 5628 5626 5623 5621 5618 5617 5615 5613 5611 5609 5608 5606 5603 5601 5599 5597 5594 5592 5589 5587 5585 5583 5580 5578 5575 5573 5571 5569 5567 5565 5563 5561 5558 5556 5554 5552 5550 5548 5546 5543 5541 5539 5537 5534 5532 5530 5528 5525 5523 5521 5518 5516 5513 5511 5509 5507 5505 5503 5500 5498 5497 5495 5493 5492 5490 5489 5488 5487 5486 5485 5484 5483 5483 5482 5481 5480 5479 5478 5478 5477 5476 5476
5630 5628 5626 5624 5623 5620 5618 5616 5613 5611 5610 5608 5606 5604 5603 5601 5598 5596 5594 5592 5589 5586 5583 5581 5579 5577 5574 5571 5569 5567 5564 5562 5560 5558 5556 5553 5551 5549 5547 5544 5542 5540 5537 5535 5532 5530 5527 5525 5522 5520 5518 5515 5513 5511 5508 5506 5503 5501 5499 5497 5495 5493 5491 5489 5487 5486 5484 5483 5481 5480 5479 5478 5477 5476 5475 5474 5473 5473 5472 5471 5470 5470 5469 5468 5468 5468
5626 5623 5621 5619 5617 5615 5613 5611 5608 5606 5604 5603 5601 5599 5597 5595 5593 5591 5589 5586 5584 5581 5578 5575 5573 5570 5568 5565 5562 5560 5558 5555 5553 5551 5549 5546 5544 5542 5539 5536 5534 5531 5528 5526 5523 5520 5518 5515 5513 5510 5508 5505 5503 5501 5498 5496 5494 5492 5490 5488 5486 5484 5482 5480 5478 5477 5475 5474 5473 5472 5470 5469 5468 5468 5467 5466 5465 5464 5464 5463 5462 5462 5461 5460 5460 5460
5620 5618 5616 5614 5612 5610 5608 5605 5603 5601 5599 5597 5595 5594 5592 5590 5588 5585 5583 5581 5578 5575 5573 5569 5567 5564 5561 5558 5555 5553 5551 5549 5546 5544 5542 5539 5537 5534 5531 5528 5526 5523 5520 5517 5514 5511 5508 5505 5503 5500 5498 5496 5493 5491 5489 5487 5485 5483 5481 5479 5477 5475 5473 5472 5470 5468 5467 5466 5465 5463 5463 5461 5460 5459 5458 5458 5457 5456 5456 5455 5454 5454 5453 5453 5452 5452
5615 5613 5611 5609 5606 5604 5602 5600 5597 5595 5593 5592 5590 5588 5586 5584 5582 5580 5577 5575 5572 5570 5567 5563 5560 5557 5554 5551 5549 5547 5544 5542 5540 5537 5535 5532 5529 5526 5523 5520 5518 5514 5511 5508 5505 5502 5498 5496 5493 5491 5488 5486 5484 5482 5479 5478 5475 5474 5472 5470 5468 5467 5465 5463 5462 5460 5459 5458 5457 5456 5455 5453 5453 5452 5451 5450 5449 5448 5448 5447 5447 5446 5445 5445 5444 5444
5609 5607 5606 5604 5601 5599 5596 5594 5592 5590 5588 5586 5585 5583 5581 5579 5577 5574 5572 5569 5566 5564 5561 5558 5554 5551 5548 5544 5542 5539 5538 5535 5533 5530 5528 5525 5522 5519 5516 5513 5509 5506 5503 5499 5496 5493 5490 5487 5484 5482 5479 5477 5475 5473 5471 5469 5467 5465 5463 5462 5460 5458 5457 5455 5454 5452 5451 5450 5449 5448 5447 5446 5445 5444 5443 5442 5441 5441 5440 5439 5439 5438 5438 5437 5437 5436
5604 5602 5600 5598 5596 5594 5591 5588 5586 5584 5583 5580 5579 5578 5576 5574 5571 5569 5567 5564 5561 5558 5555 5552 5549 5545 5541 5538 5535 5533 5531 5528 5526 5524 5521 5518 5514 5511 5508 5505 5502 5498 5494 5491 5488 5484 5481 5478 5476 5473 5471 5469 5466 5464 5462 5460 5458 5456 5454 5453 5451 5450 5448 5447 5445 5444 5443 5442 5441 5440 5439 5438 5437 5436 5435 5434 5433 5433 5432 5431 5431 5430 5430 5430 5429 5429
5599 5597 5595 5592 5590 5588 5586 5583 5580 5578 5577 5575 5573 5571 5570 5568 5566 5564 5561 5558 5555 5552 5549 5547 5543 5540 5535 5531 5528 5526 5524 5522 5519 5516 5514 5511 5508 5504 5501 5498 5494 5491 5487 5483 5480 5477 5473 5470 5468 5465 5463 5460 5458 5455 5453 5451 5449 5447 5446 5444 5442 5441 5439 5438 5437 5435 5434 5433 5432 5431 5430 5429 5428 5428 5427 5426 5426 5425 5424 5424 5423 5423 5423 5422 5422 5422
5593 5591 5589 5587 5585 5582 5580 5578 5576 5573 5571 5569 5567 5565 5563 5563 5561 5558 5555 5553 5550 5547 5543 5540 5537 5534 5530 5526 5522 5519 5517 5515 5512 5509 5506 5503 5500 5497 5494 5491 5488 5484 5481 5477 5473 5469 5466 5463 5460 5458 5455 5452 5449 5447 5444 5442 5440 5438 5436 5435 5433 5432 5430 5429 5428 5426 5425 5424 5423 5422 5422 5421 5420 5419 5419 5418 5418 5417 5417 5416 5416 5415 5415 5415 5414 5414
5588 5586 5584 5582 5579 5577 5575 5573 5570 5568 5566 5564 5562 5560 5557 5556 5554 5553 5550 5547 5544 5542 5539 5535 5531 5528 5524 5521 5517 5513 5511 5508 5506 5503 5499 5496 5493 5489 5487 5484 5481 5478 5474 5471 5467 5463 5459 5456 5453 5450 5447 5444 5441 5438 5435 5433 5431 5428 5427 5425 5423 5422 5421 5419 5418 5417 5416 5415 5414 5414 5413 5412 5412 5411 5411 5410 5410 5410 5409 5409 5408 5408 5408 5408 5408 5407
5583 5581 5578 5576 5574 5571 5569 5567 5565 5563 5561 5559 5557 5555 5552 5550 5548 5546 5544 5541 5539 5536 5534 5530 5526 5522 5518 5514 5511 5508 5505 5503 5500 5497 5494 5490 5486 5483 5481 5478 5474 5471 5468 5465 5461 5456 5453 5450 5446 5443 5439 5436 5432 5429 5426 5423 5421 5419 5417 5415 5414 5412 5411 5410 5409 5408 5407 5407 5406 5405 5405 5404 5403 5403 5403 5403 5403 5402 5402 5402 5401 5401 5401 5401 5401 5401
5578 5575 5573 5570 5568 5566 5564 5562 5559 5557 5555 5553 5552 5549 5547 5544 5542 5540 5538 5535 5532 5530 5528 5525 5522 5517 5513 5508 5504 5501 5499 5497 5495 5492 5489 5484 5480 5477 5475 5473 5469 5466 5463 5460 5455 5450 5446 5443 5440 5436 5432 5428 5424 5421 5418 5415 5413 5410 5408 5406 5404 5403 5402 5401 5400 5399 5399 5398 5398 5397 5397 5396 5396 5396 5395 5395 5395 5395 5395 5395 5394 5394 5394 5394 5394 5394
5572 5570 5568 5565 5563 5560 5558 5556 5554 5551 5549 5548 5546 5543 5541 5538 5536 5534 5532 5529 5526 5523 5521 5519 5516 5512 5507 5503 5498 5495 5493 5491 5489 5487 5485 5480 5475 5471 5469 5467 5464 5460 5457 5454 5450 5445 5440 5437 5433 5429 5425 5421 5417 5413 5410 5407 5405 5402 5400 5398 5396 5395 5393 5393 5392 5391 5390 5390 5389 5389 5389 5388 5388 5388 5388 5388 5388 5388 5388 5388 5388 5388 5388 5388 5388 5388
5567 5565 5562 5560 5557 5555 5553 5551 5548 5546 5544 5542 5540 5538 5536 5533 5530 5527 5525 5523 5520 5517 5515 5513 5510 5506 5501 5496 5492 5489 5488 5486 5483 5482 5480 5477 5471 5465 5463 5462 5459 5455 5451 5448 5444 5439 5434 5430 5426 5423 5418 5414 5410 5407 5403 5400 5398 5395 5393 5391 5389 5387 5386 5385 5384 5383 5383 5382 5382 5382 5382 5381 5381 5381 5382 5382 5382 5382 5382 5382 5382 5382 5383 5383 5383 5383
5562 5559 5557 5554 5552 5549 5547 5545 5543 5540 5538 5536 5534 5532 5530 5527 5524 5521 5519 5516 5514 5511 5508 5506 5503 5501 5497 5491 5486 5482 5481 5481 5478 5476 5475 5473 5467 5461 5457 5456 5453 5450 5446 5442 5438 5433 5429 5424 5420 5416 5412 5408 5404 5400 5397 5394 5392 5389 5387 5384 5383 5381 5379 5378 5377 5376 5375 5375 5375 5374 5374 5374 5374 5375 5375 5375 5375 5376 5376 5376 5376 5377 5377 5377 5377 5377
5556 5553 5551 5548 5546 5543 5541 5539 5536 5534 5532 5530 5528 5526 5523 5521 5518 5516 5513 5510 5507 5504 5502 5499 5496 5494 5491 5487 5481 5476 5474 5475 5473 5471 5470 5468 5463 5458 5453 5450 5448 5445 5441 5437 5432 5427 5423 5419 5415 5410 5406 5402 5398 5394 5391 5388 5386 5383 5381 5379 5377 5375 5373 5372 5371 5370 5369 5368 5368 5368 5368 5368 5368 5368 5369 5369 5369 5370 5370 5371 5371 5371 5372 5372 5372 5372
5550 5547 5545 5542 5539 5537 5535 5533 5530 5528 5526 5524 5523 5520 5518 5514 5512 5509 5507 5504 5501 5498 5496 5493 5490 5487 5484 5481 5477 5472 5469 5469 5468 5466 5465 5463 5459 5454 5448 5446 5443 5440 5436 5432 5427 5422 5418 5413 5409 5405 5401 5397 5393 5389 5386 5383 5380 5378 5375 5373 5371 5369 5368 5366 5365 5364 5363 5363 5363 5363 5363 5363 5363 5363 5363 5363 5364 5364 5364 5365 5366 5366 5366 5367 5367 5367
5543 5541 5538 5536 5534 5531 5528 5527 5524 5522 5520 5518 5516 5514 5512 5509 5506 5503 5500 5498 5495 5492 5489 5487 5484 5481 5478 5475 5471 5467 5464 5463 5463 5461 5460 5459 5455 5450 5445 5441 5438 5435 5431 5426 5422 5417 5413 5408 5404 5400 5396 5392 5388 5384 5381 5378 5375 5372 5370 5368 5366 5364 5363 5361 5360 5359 5358 5358 5358 5358 5358 5358 5358 5358 5358 5358 5358 5359 5359 5360 5360 5361 5362 5362 5362 5362
5537 5534 5532 5530 5528 5525 5523 5520 5518 5516 5514 5512 5509 5508 5505 5503 5500 5497 5494 5492 5489 5486 5483 5481 5478 5475 5473 5470 5467 5462 5459 5458 5458 5457 5455 5454 5451 5446 5441 5437 5433 5430 5426 5421 5417 5412 5408 5404 5400 5396 5392 5388 5383 5380 5376 5373 5370 5368 5365 5363 5361 5359 5358 5357 5355 5355 5354 5354 5353 5353 5353 5353 5353 5353 5353 5353 5353 5354 5354 5355 5356 5356 5357 5357 5358 5358
5532 5529 5526 5523 5521 5520 5518 5515 5512 5509 5507 5505 5503 5501 5498 5497 5494 5491 5488 5485 5483 5481 5478 5476 5473 5470 5468 5465 5462 5458 5454 5453 5452 5452 5450 5448 5445 5441 5436 5432 5428 5425 5422 5417 5412 5408 5404 5400 5396 5392 5388 5384 5380 5376 5373 5369 5366 5363 5361 5359 5357 5355 5353 5352 5351 5350 5350 5349 5349 5349 5348 5348 5348 5348 5348 5348 5349 5349 5350 5350 5351 5352 5352 5353 5353 5353
5525 5523 5520 5517 5515 5513 5511 5509 5506 5503 5501 5499 5497 5494 5492 5490 5488 5485 5483 5480 5478 5475 5473 5471 5468 5465 5463 5460 5457 5453 5449 5448 5446 5446 5444 5443 5440 5436 5432 5428 5424 5421 5417 5413 5408 5404 5400 5397 5393 5388 5384 5380 5377 5373 5369 5366 5363 5360 5358 5355 5353 5351 5350 5348 5348 5347 5346 5346 5345 5345 5345 5345 5344 5344 5344 5344 5344 5345 5345 5346 5347 5347 5348 5348 5348 5349
5519 5517 5514 5511 5509 5507 5505 5503 5500 5498 5495 5492 5490 5488 5486 5484 5482 5479 5476 5474 5472 5470 5468 5466 5464 5461 5458 5456 5453 5449 5445 5442 5441 5440 5439 5437 5435 5432 5428 5423 5420 5417 5413 5409 5405 5400 5397 5393 5389 5385 5381 5377 5373 5370 5366 5363 5360 5357 5355 5352 5350 5348 5347 5345 5344 5343 5343 5342 5342 5342 5341 5341 5341 5341 5340 5340 5341 5341 5341 5342 5343 5343 5343 5344 5344 5345
5513 5510 5508 5505 5503 5501 5499 5497 5494 5492 5489 5487 5485 5483 5480 5478 5475 5472 5470 5468 5466 5464 5463 5462 5460 5457 5454 5452 5448 5444 5440 5438 5436 5436 5434 5433 5430 5428 5424 5420 5416 5413 5409 5406 5402 5398 5394 5390 5387 5382 5378 5374 5371 5367 5364 5361 5358 5355 5352 5349 5347 5345 5344 5342 5341 5340 5340 5339 5339 5338 5338 5338 5338 5337 5337 5337 5337 5337 5338 5338 5338 5339 5339 5340 5340 5341
5506 5504 5501 5499 5497 5495 5493 5491 5488 5486 5483 5481 5478 5476 5474 5472 5469 5467 5464 5462 5461 5460 5459 5457 5455 5453 5450 5448 5444 5440 5436 5433 5432 5431 5430 5428 5426 5423 5420 5416 5413 5410 5406 5403 5399 5395 5391 5388 5384 5380 5376 5372 5368 5365 5362 5358 5355 5352 5350 5347 5345 5343 5341 5340 5339 5338 5337 5337 5336 5336 5335 5335 5335 5335 5334 5334 5334 5334 5334 5334 5335 5335 5335 5336 5336 5337
5500 5497 5495 5493 5491 5489 5487 5484 5482 5479 5477 5474 5472 5470 5468 5467 5465 5463 5460 5458 5457 5456 5454 5453 5451 5448 5446 5443 5440 5436 5432 5429 5428 5427 5426 5424 5422 5419 5416 5413 5409 5406 5403 5400 5397 5393 5389 5385 5382 5378 5374 5370 5367 5363 5360 5356 5353 5350 5348 5345 5343 5341 5339 5338 5336 5335 5334 5334 5333 5333 5333 5333 5332 5332 5332 5331 5331 5331 5331 5331 5331 5331 5331 5332 5332 5333
5493 5491 5488 5486 5484 5483 5481 5478 5476 5473 5471 5468 5466 5464 5463 5462 5460 5458 5456 5454 5453 5452 5450 5448 5446 5444 5442 5439 5436 5432 5428 5426 5424 5423 5422 5420 5418 5415 5412 5409 5406 5403 5400 5398 5394 5391 5387 5383 5379 5376 5372 5368 5365 5362 5358 5355 5352 5349 5346 5344 5342 5339 5337 5336 5334 5333 5332 5331 5331 5330 5330 5330 5329 5329 5328 5328 5328 5328 5327 5327 5327 5327 5328 5328 5328 5328
5487 5484 5482 5480 5478 5477 5475 5472 5470 5467 5465 5463 5461 5459 5457 5456 5455 5454 5452 5451 5450 5448 5446 5444 5442 5440 5438 5435 5432 5428 5425 5422 5420 5419 5418 5416 5414 5412 5409 5406 5402 5399 5397 5394 5392 5389 5386 5381 5377 5374 5371 5367 5364 5360 5357 5353 5350 5348 5345 5343 5340 5338 5336 5334 5332 5331 5330 5329 5328 5328 5327 5326 5326 5325 5325 5325 5324 5324 5324 5323 5323 5323 5323 5324 5324 5324
5479 5478 5476 5473 5472 5470 5468 5466 5464 5462 5459 5458 5456 5454 5453 5452 5451 5450 5448 5447 5446 5444 5442 5440 5437 5435 5433 5431 5428 5425 5422 5419 5417 5416 5414 5413 5410 5408 5405 5402 5399 5396 5393 5391 5389 5387 5385 5380 5376 5372 5369 5366 5362 5359 5355 5352 5349 5347 5344 5342 5339 5337 5334 5332 5330 5329 5328 5326 5325 5324 5324 5323 5322 5322 5321 5321 5320 5320 5320 5319 5319 5319 5319 5320 5320 5320
5472 5470 5469 5467 5465 5463 5462 5460 5458 5456 5454 5453 5451 5450 5449 5448 5447 5446 5445 5443 5442 5440 5438 5436 5433 5431 5428 5427 5424 5421 5418 5416 5414 5412 5411 5409 5407 5404 5402 5399 5396 5393 5391 5388 5386 5383 5382 5379 5376 5372 5368 5364 5361 5358 5354 5351 5348 5346 5343 5341 5338 5336 5333 5331 5329 5327 5326 5324 5323 5322 5321 5320 5319 5318 5318 5317 5317 5316 5316 5315 5315 5315 5315 5315 5316 5316
5465 5463 5462 5460 5459 5457 5455 5454 5452 5451 5449 5448 5447 5446 5445 5444 5443 5443 5441 5439 5438 5436 5434 5432 5429 5427 5425 5423 5420 5418 5415 5413 5410 5408 5407 5405 5403 5401 5398 5396 5393 5390 5388 5385 5383 5380 5378 5376 5374 5371 5367 5363 5359 5356 5353 5350 5347 5344 5342 5340 5337 5335 5332 5330 5328 5326 5324 5323 5321 5319 5318 5317 5316 5315 5314 5313 5313 5312 5312 5312 5311 5311 5311 5311 5312 5312
5459 5458 5456 5454 5453 5451 5450 5448 5447 5446 5445 5444 5444 5443 5442 5442 5440 5439 5438 5436 5434 5432 5430 5428 5426 5423 5421 5419 5416 5414 5411 5409 5407 5405 5403 5402 5400 5398 5395 5393 5390 5388 5385 5383 5380 5378 5375 5373 5371 5368 5365 5362 5358 5355 5352 5349 5346 5343 5341 5339 5336 5334 5331 5329 5327 5324 5323 5321 5319 5318 5316 5314 5313 5312 5311 5310 5309 5309 5308 5308 5307 5307 5307 5307 5308 5308
5454 5452 5451 5449 5448 5446 5445 5444 5443 5443 5442 5442 5441 5440 5439 5438 5437 5436 5434 5433 5431 5428 5427 5424 5422 5420 5417 5415 5413 5411 5408 5406 5403 5401 5400 5398 5396 5394 5392 5389 5387 5384 5382 5380 5378 5375 5373 5370 5368 5366 5363 5360 5357 5353 5350 5348 5345 5342 5340 5338 5335 5333 5330 5328 5326 5323 5322 5320 5318 5316 5314 5313 5311 5310 5308 5307 5306 5305 5305 5304 5304 5303 5303 5303 5304 5304
5448 5447 5446 5444 5443 5442 5441 5440 5440 5440 5439 5439 5438 5438 5437 5436 5434 5433 5431 5429 5427 5425 5423 5420 5418 5416 5414 5412 5410 5408 5405 5403 5400 5398 5396 5394 5393 5391 5388 5386 5384 5382 5379 5377 5375 5373 5370 5368 5366 5363 5361 5358 5355 5352 5349 5346 5343 5341 5338 5336 5333 5331 5329 5327 5324 5323 5321 5318 5317 5314 5313 5311 5309 5308 5306 5305 5304 5303 5302 5301 5301 5300 5300 5300 5300 5300
5444 5443 5441 5440 5439 5439 5438 5438 5438 5438 5437 5437 5436 5435 5434 5433 5431 5430 5428 5426 5424 5422 5419 5417 5414 5412 5410 5408 5406 5404 5402 5400 5397 5395 5393 5391 5389 5388 5385 5383 5381 5378 5376 5374 5372 5370 5368 5366 5363 5361 5358 5356 5353 5351 5348 5345 5342 5339 5337 5335 5332 5330 5327 5325 5323 5321 5319 5318 5316 5313 5312 5310 5308 5307 5305 5303 5302 5301 5300 5299 5298 5298 5297 5297 5297 5297
5440 5438 5438 5437 5437 5437 5436 5436 5436 5436 5435 5435 5434 5433 5432 5430 5428 5427 5425 5423 5421 5419 5416 5413 5411 5408 5406 5404 5403 5401 5398 5396 5394 5392 5390 5388 5386 5384 5383 5380 5378 5376 5374 5371 5369 5368 5365 5363 5361 5359 5357 5354 5351 5349 5347 5344 5342 5339 5336 5333 5331 5328 5326 5323 5321 5319 5318 5316 5314 5312 5310 5308 5307 5305 5304 5302 5301 5299 5298 5297 5296 5295 5295 5294 5294 5294
5436 5435 5435 5435 5435 5435 5435 5435 5434 5434 5433 5433 5431 5430 5429 5428 5426 5424 5422 5420 5418 5416 5413 5410 5408 5405 5403 5401 5399 5397 5395 5393 5391 5389 5387 5385 5383 5382 5380 5378 5375 5373 5371 5369 5367 5364 5363 5361 5358 5357 5354 5352 5350 5347 5345 5343 5340 5338 5336 5333 5330 5327 5324 5322 5320 5318 5316 5314 5313 5311 5309 5307 5306 5304 5303 5301 5299 5298 5297 5295 5294 5293 5293 5292 5292 5292
5433 5433 5433 5433 5434 5434 5434 5433 5433 5432 5431 5430 5429 5428 5427 5425 5423 5422 5420 5418 5415 5413 5410 5408 5405 5402 5400 5398 5396 5394 5392 5390 5388 5386 5384 5383 5381 5379 5377 5375 5373 5371 5369 5367 5364 5362 5360 5358 5356 5354 5352 5350 5348 5346 5343 5341 5338 5337 5335 5333 5330 5327 5323 5321 5319 5317 5315 5313 5312 5310 5308 5306 5304 5303 5301 5300 5298 5297 5295 5294 5293 5292 5291 5291 5290 5290
5432 5432 5433 5433 5433 5433 5432 5432 5431 5430 5429 5428 5427 5426 5424 5423 5421 5419 5417 5415 5413 5410 5408 5405 5403 5400 5397 5395 5393 5391 5389 5387 5385 5383 5382 5380 5378 5376 5374 5373 5371 5369 5367 5364 5362 5360 5358 5355 5353 5351 5349 5348 5346 5344 5341 5339 5337 5335 5333 5332 5329 5327 5323 5320 5318 5316 5314 5313 5311 5309 5307 5305 5304 5302 5300 5299 5297 5296 5294 5293 5292 5291 5290 5289 5289 5289
5432 5432 5432 5432 5432 5432 5431 5430 5429 5428 5427 5426 5425 5424 5423 5421 5419 5417 5415 5413 5410 5408 5405 5403 5400 5398 5395 5393 5390 5388 5386 5384 5383 5381 5379 5378 5376 5374 5372 5370 5368 5367 5365 5363 5360 5358 5355 5353 5350 5348 5347 5345 5343 5342 5339 5337 5335 5333 5331 5329 5328 5326 5323 5320 5317 5315 5313 5312 5310 5308 5306 5305 5303 5302 5300 5298 5297 5295 5293 5292 5291 5290 5289 5288 5288 5288
5432 5432 5432 5431 5431 5430 5429 5428 5428 5427 5425 5424 5423 5422 5420 5419 5417 5415 5413 5410 5408 5406 5403 5401 5398 5396 5393 5391 5388 5386 5384 5382 5380 5378 5377 5375 5373 5372 5370 5368 5366 5364 5363 5360 5358 5356 5353 5351 5348 5346 5344 5343 5341 5339 5337 5335 5333 5331 5329 5328 5326 5324 5322 5320 5317 5314 5313 5311 5309 5307 5306 5304 5303 5301 5299 5298 5296 5294 5293 5292 5291 5290 5289 5288 5288 5287
5432 5431 5431 5430 5429 5429 5428 5427 5426 5425 5424 5423 5421 5420 5418 5417 5415 5413 5411 5408 5406 5404 5401 5399 5397 5394 5392 5390 5387 5384 5382 5380 5378 5376 5375 5373 5372 5370 5368 5366 5364 5362 5360 5358 5356 5354 5352 5349 5346 5344 5342 5340 5338 5337 5335 5333 5331 5329 5327 5325 5324 5322 5320 5318 5316 5314 5312 5310 5308 5306 5305 5303 5302 5301 5299 5297 5296 5294 5293 5292 5291 5290 5289 5288 5288 5287
5431 5430 5430 5429 5428 5427 5426 5425 5424 5423 5422 5421 5419 5418 5416 5414 5412 5410 5408 5406 5404 5402 5399 5397 5395 5393 5390 5388 5386 5383 5381 5378 5376 5374 5373 5371 5369 5368 5366 5364 5362 5360 5358 5356 5354 5352 5349 5347 5345 5343 5340 5338 5337 5334 5332 5331 5329 5327 5325 5323 5322 5320 5318 5316 5314 5313 5311 5308 5307 5305 5303 5303 5301 5300 5299 5297 5296 5294 5293 5292 5290 5289 5289 5288 5288 5287
5430 5429 5429 5428 5427 5426 5425 5424 5423 5421 5420 5418 5417 5415 5413 5412 5410 5408 5406 5404 5402 5400 5397 5395 5393 5391 5388 5386 5384 5383 5380 5378 5375 5373 5371 5369 5368 5366 5364 5362 5360 5358 5356 5354 5352 5349 5347 5345 5343 5341 5339 5337 5335 5332 5330 5328 5326 5325 5323 5321 5319 5318 5316 5314 5312 5310 5309 5307 5305 5303 5302 5301 5300 5299 5298 5297 5295 5294 5293 5292 5291 5290 5289 5288 5288 5287
5429 5428 5428 5427 5426 5425 5424 5422 5421 5419 5418 5416 5415 5413 5411 5409 5408 5406 5404 5402 5400 5398 5395 5393 5391 5388 5386 5384 5383 5381 5378 5377 5374 5372 5369 5368 5365 5363 5362 5360 5358 5356 5353 5351 5349 5347 5345 5343 5341 5339 5337 5335 5333 5331 5328 5326 5324 5322 5321 5319 5318 5316 5314 5312 5310 5308 5306 5305 5303 5302 5300 5299 5298 5298 5297 5296 5295 5294 5293 5292 5291 5290 5289 5288 5288 5288
5428 5428 5427 5426 5424 5423 5422 5421 5419 5418 5416 5414 5413 5411 5409 5407 5405 5403 5402 5400 5398 5396 5393 5391 5389 5387 5384 5382 5380 5378 5376 5374 5372 5370 5368 5366 5364 5362 5360 5358 5356 5353 5352 5349 5347 5345 5343 5340 5338 5336 5335 5333 5331 5329 5327 5324 5322 5320 5318 5317 5315 5314 5312 5310 5308 5306 5304 5303 5301 5300 5298 5297 5297 5296 5295 5294 5294 5293 5292 5291 5290 5289 5289 5288 5288 5288
5428 5427 5426 5424 5423 5422 5420 5419 5417 5416 5414 5412 5410 5408 5407 5405 5403 5401 5399 5398 5396 5393 5392 5389 5387 5384 5382 5380 5378 5376 5373 5372 5370 5368 5366 5365 5363 5360 5358 5356 5354 5352 5349 5347 5345 5343 5340 5338 5335 5333 5332 5330 5329 5327 5325 5323 5320 5318 5316 5315 5313 5312 5310 5309 5307 5305 5303 5302 5300 5298 5297 5295 5294 5294 5293 5293 5292 5291 5290 5290 5289 5288 5288 5288 5288 5288
5427 5426 5424 5423 5422 5420 5419 5417 5415 5414 5412 5410 5408 5406 5404 5403 5401 5399 5397 5395 5393 5392 5389 5387 5385 5383 5380 5378 5376 5373 5371 5369 5367 5366 5364 5362 5361 5359 5357 5355 5353 5350 5348 5346 5343 5341 5338 5336 5333 5331 5329 5327 5326 5324 5323 5321 5319 5317 5315 5313 5312 5310 5309 5308 5306 5304 5303 5301 5299 5297 5295 5294 5293 5292 5291 5291 5290 5289 5289 5288 5288 5287 5287 5287 5287 5287
5425 5424 5423 5422 5420 5418 5417 5415 5413 5412 5410 5408 5406 5404 5402 5400 5398 5397 5395 5393 5391 5389 5387 5385 5383 5381 5378 5376 5374 5372 5369 5367 5365 5363 5362 5360 5358 5357 5355 5353 5351 5349 5347 5345 5343 5340 5338 5336 5333 5330 5327 5324 5323 5321 5320 5319 5317 5315 5313 5312 5310 5308 5307 5306 5305 5303 5301 5300 5298 5296 5294 5293 5292 5290 5290 5289 5288 5288 5287 5286 5286 5285 5285 5285 5285 5285
5424 5423 5421 5420 5418 5417 5415 5413 5412 5410 5408 5406 5404 5402 5400 5398 5397 5395 5393 5391 5389 5388 5385 5383 5381 5378 5376 5374 5372 5370 5367 5365 5363 5361 5359 5358 5356 5354 5353 5351 5349 5347 5345 5343 5342 5339 5338 5336 5333 5331 5328 5324 5321 5318 5317 5316 5314 5313 5311 5310 5308 5307 5305 5303 5303 5301 5300 5298 5297 5295 5293 5292 5291 5289 5288 5288 5287 5286 5285 5285 5284 5283 5283 5283 5283 5283